| time (UTC) | temp F | wind direction | speed MPH | gust MPH | rain 1hr in | rain 24hr in | rain mn in | humidity % | barometer mb |
| 20260504030114 | 0 | 0.0 | 0.0 | 0.00 | 0.00 | 0.00 | 1016.9 | ||
| 20260504023048 | 63 | 179 | 0.0 | 0.0 | 0.00 | 0.00 | 0.00 | 76 | 1016.7 |
| 20260504021524 | 64 | 179 | 0.0 | 0.0 | 0.00 | 0.00 | 0.00 | 74 | 1016.4 |
| 20260504020108 | 65 | 179 | 0.0 | 0.0 | 0.00 | 0.00 | 0.00 | 73 | 1016.5 |
| 20260504014522 | 66 | 179 | 0.0 | 1.0 | 0.00 | 0.00 | 0.00 | 71 | 1016.5 |
| 20260504013057 | 67 | 179 | 0.0 | 0.0 | 0.00 | 0.00 | 0.00 | 69 | 1016.3 |
| 20260504011536 | 69 | 179 | 0.0 | 2.0 | 0.00 | 0.00 | 0.00 | 67 | 1016.1 |
| 20260504010110 | 70 | 179 | 0.0 | 3.0 | 0.00 | 0.00 | 0.00 | 64 | 1016.3 |
| 20260504004542 | 72 | 194 | 1.0 | 3.0 | 0.00 | 0.00 | 0.00 | 61 | 1016.4 |
| 20260504003009 | 73 | 180 | 2.0 | 4.0 | 0.00 | 0.00 | 0.00 | 59 | 1016.4 |
| 20260504001555 | 74 | 179 | 2.0 | 4.0 | 0.00 | 0.00 | 0.00 | 56 | 1016.5 |
| 20260504000007 | 79 | 162 | 3.0 | 6.0 | 0.00 | 0.00 | 0.00 | 49 | 1016.7 |
| 20260503234546 | 82 | 163 | 4.0 | 8.0 | 0.00 | 0.00 | 0.00 | 48 | 1016.6 |
| 20260503233021 | 81 | 149 | 3.0 | 7.0 | 0.00 | 0.00 | 0.00 | 50 | 1016.7 |
| 20260503231600 | 81 | 119 | 3.0 | 7.0 | 0.00 | 0.00 | 0.00 | 49 | 1016.8 |
| 20260503231502 | 81 | 160 | 4.0 | 7.0 | 0.00 | 0.00 | 0.00 | 51 | 1016.8 |
| 20260503230016 | 79 | 120 | 4.0 | 8.0 | 0.00 | 0.00 | 0.00 | 52 | 1016.9 |
| 20260503224553 | 80 | 162 | 4.0 | 9.0 | 0.00 | 0.00 | 0.00 | 51 | 1017.1 |
| 20260503223034 | 80 | 152 | 4.0 | 10.0 | 0.00 | 0.00 | 0.00 | 52 | 1017.1 |
| 20260503221559 | 80 | 141 | 4.0 | 10.0 | 0.00 | 0.00 | 0.00 | 50 | 1017.3 |
| 20260503221501 | 80 | 204 | 4.0 | 10.0 | 0.00 | 0.00 | 0.00 | 50 | 1017.3 |
| 20260503220040 | 80 | 94 | 4.0 | 8.0 | 0.00 | 0.00 | 0.00 | 49 | 1017.4 |
| 20260503214600 | 79 | 151 | 4.0 | 11.0 | 0.00 | 0.00 | 0.00 | 49 | 1017.6 |
| 20260503213040 | 80 | 145 | 3.0 | 9.0 | 0.00 | 0.00 | 0.00 | 50 | 1017.8 |
| 20260503211515 | 80 | 114 | 4.0 | 9.0 | 0.00 | 0.00 | 0.00 | 47 | 1017.9 |
| 20260503210051 | 80 | 153 | 4.0 | 10.0 | 0.00 | 0.00 | 0.00 | 52 | 1018.4 |
| 20260503204521 | 80 | 120 | 5.0 | 10.0 | 0.00 | 0.00 | 0.00 | 48 | 1018.7 |
| 20260503203050 | 79 | 163 | 5.0 | 10.0 | 0.00 | 0.00 | 0.00 | 50 | 1018.9 |
| 20260503201623 | 80 | 144 | 2.0 | 0.0 | 0.00 | 0.00 | 0.00 | 48 | 1019.1 |
| 20260503200051 | 0 | 0.0 | 0.0 | 0.00 | 0.00 | 0.00 | 1019.2 | ||
| 20260503194557 | 0 | 0.0 | 0.0 | 0.00 | 0.00 | 0.00 | 1019.5 | ||
| 20260503191511 | 79 | 35 | 0.0 | 5.0 | 0.00 | 0.00 | 0.00 | 49 | 1020.0 |
| 20260503190059 | 0 | 0.0 | 0.0 | 0.00 | 0.00 | 0.00 | 1020.3 | ||
| 20260503184625 | 0 | 0.0 | 0.0 | 0.00 | 0.00 | 0.00 | 1020.4 | ||
| 20260503183038 | 0 | 0.0 | 0.0 | 0.00 | 0.00 | 0.00 | 1020.6 | ||
| 20260503181646 | 78 | 198 | 1.0 | 5.0 | 0.00 | 0.00 | 0.00 | 53 | 1020.8 |
| 20260503180038 | 77 | 212 | 6.0 | 8.0 | 0.00 | 0.00 | 0.00 | 54 | 1021.0 |
| 20260503174524 | 0 | 0.0 | 0.0 | 0.00 | 0.00 | 0.00 | 1021.4 | ||
| 20260503171614 | 0 | 0.0 | 0.0 | 0.00 | 0.00 | 0.00 | 1021.9 | ||
| 20260503150105 | 70 | 206 | 3.0 | 5.0 | 0.00 | 0.00 | 0.00 | 70 | 1022.4 |
| 20260503081527 | 0 | 0.0 | 0.0 | 0.00 | 0.00 | 0.00 | 1020.0 | ||
| 20260503070114 | 0 | 0.0 | 0.0 | 0.00 | 0.00 | 0.00 | 1020.6 | ||
| 20260503054550 | 0 | 0.0 | 0.0 | 0.00 | 0.00 | 0.00 | 1020.5 | ||
| 20260503051540 | 0 | 0.0 | 0.0 | 0.00 | 0.00 | 0.00 | 1020.6 | ||
| 20260503050052 | 0 | 0.0 | 0.0 | 0.00 | 0.00 | 0.00 | 1020.5 | ||
| 20260503043016 | 0 | 0.0 | 0.0 | 0.00 | 0.00 | 0.00 | 1020.5 | ||
| 20260503041639 | 0 | 0.0 | 0.0 | 0.00 | 0.00 | 0.00 | 1020.5 | ||
| 20260503040048 | 0 | 0.0 | 0.0 | 0.00 | 0.00 | 0.00 | 1020.3 | ||
| 20260503034540 | 0 | 0.0 | 0.0 | 0.00 | 0.00 | 0.00 | 1020.3 | ||
| 20260503031551 | 0 | 0.0 | 0.0 | 0.00 | 0.00 | 0.00 | 1019.9 |